[[{"header":{"parameterUnit":"m.s-1","parameterCategory":1,"la1":30.2992,"la2":30.254,"lo1":-89.0895,"lo2":-89.0443,"dy":0.0025,"dx":0.0025,"nx":19,"ny":19,"refTime":"2026-04-09T09:00:00:Z","depth":0,"parameterNumber":2,"parameterNumberName":"U-component_of_WINDS"},"data":[0,0,0,-7.3348,-7.3354,-7.3628,-7.3629,-7.4034,-7.4038,0,0,0,0,0,0,0,0,0,0,0,-7.3299,-7.3302,-7.3347,-7.3355,-7.3628,-7.3629,-7.4033,-7.4038,0,0,0,0,0,0,0,0,0,0,0,-7.3297,-7.3301,-7.3306,-7.3356,-7.3628,-7.3629,-7.4032,-7.3807,0,0,0,0,0,0,0,0,0,0,-7.3531,-7.3518,-7.33,-7.3306,-7.3358,-7.3628,-7.3629,-7.3795,-7.3821,-7.3933,0,-7.404,0,-7.4046,-7.4069,-7.407,0,0,0,-7.3331,-7.3496,-7.354,-7.3307,-7.3361,-7.3628,-7.3498,-7.3809,-7.3838,-7.3968,-7.4046,-7.4059,-7.4053,-7.4072,-7.4074,-7.4796,-7.48,0,0,-7.3316,-7.3366,-7.3521,-7.3561,-7.3521,-7.349,-7.3507,-7.3825,-7.3915,-7.4047,-7.4068,-7.4059,-7.4075,-7.4078,-7.4791,-7.4797,0,0,0,-7.3289,-7.3357,-7.3391,-7.3546,-7.3591,-7.3498,-7.3518,-7.39,-7.3907,-7.4072,-7.4064,-7.4077,-7.4083,-7.4786,-7.4793,-7.5062,0,0,0,-7.3278,-7.334,-7.3386,-7.342,-7.3586,-7.3749,-7.3587,-7.3886,-7.392,-7.4062,-7.4077,-7.4087,-7.4781,-7.479,-7.5044,-7.5183,0,0,0,-7.327,-7.3338,-7.3389,-7.3422,-7.3541,-7.3743,-7.3767,-7.3892,-7.3917,-7.4071,-7.4088,-7.4778,-7.4788,-7.5028,-7.5156,-7.5387,0,0,0,-7.3276,-7.3626,-7.3394,-7.3782,-7.3539,-7.3906,-7.3765,-7.4036,-7.42,-7.408,-7.4782,-7.4793,-7.5023,-7.5139,-7.537,-7.5591,-7.5688,0,0,-7.3746,-7.3685,-7.3909,-7.3709,-7.413,-7.386,-7.4321,-7.4425,-7.4395,-7.4664,-7.4681,-7.505,-7.5154,-7.5383,-7.6208,-7.6285,0,0,0,-7.4075,-7.4237,-7.4337,-7.4494,-7.458,-7.4666,-7.4693,-7.4731,-7.4956,-7.4543,-7.5193,-7.5254,-7.5387,-7.549,-7.5556,-7.5667,-7.4842,-7.4841,-7.484,-7.4814,-7.4754,-7.512,-7.5093,-7.5248,-7.5271,-7.539,-7.5445,-7.5342,-7.5497,-7.5577,-7.6085,-7.6208,-7.6257,-7.6373,-7.5688,-7.5689,-7.569,-7.569,-7.5498,-7.5718,-7.5568,-7.587,-7.5805,-7.6058,-7.6094,-7.6011,-7.6239,-7.602,-7.6134,-7.5902,-7.6343,-7.6442,-7.571,-7.5707,-7.5704,-7.5702,-7.5701,-7.5977,-7.6072,-7.611,-7.6328,-7.6504,-7.6464,-7.6688,-7.662,-7.6559,-7.6671,-7.6749,-7.6744,-7.6732,-7.6712,-7.6714,-7.6716,-7.6717,-7.6719,-7.672,-7.646,-7.6493,-7.669,-7.6808,-7.6898,-7.701,-7.7034,-7.7122,-7.7202,-7.7135,-7.7136,-7.7018,-7.6396,-7.6243,-7.6747,-7.6742,-7.6738,-7.6736,-7.6734,-7.7179,-7.7004,-7.7308,-7.7399,-7.7531,-7.771,-7.7618,-7.7803,-7.7865,-7.7978,-7.7834,-7.7385,-7.7319,-7.7267,-7.7139,-7.7845,-7.7845,-7.7845,-7.7845,-7.7584,-7.7542,-7.7836,-7.7985,-7.8123,-7.8071,-7.8417,-7.8439,-7.8434,-7.8469,-7.8356,-7.818,-7.813,-7.8093,-7.8023,-7.7903,-7.8788,-7.8789,-7.8789,-7.8023,-7.7991,-7.8298,-7.8289,-7.8386,-7.8472,-7.8794,-7.8973,-7.8931,-7.8826,-7.8495,-7.8456,-7.8171,-7.8081,-7.7972,-7.7864,-7.7643,0,0]},{"header":{"parameterUnit":"m.s-1","parameterCategory":1,"la1":30.2992,"la2":30.254,"lo1":-89.0895,"lo2":-89.0443,"dy":0.0025,"dx":0.0025,"nx":19,"ny":19,"refTime":"2026-04-09T09:00:00:Z","depth":0,"parameterNumber":3,"parameterNumberName":"V-component_of_WINDS"},"data":[0,0,0,-1.6742,-1.6741,-1.6693,-1.6693,-1.6637,-1.6636,0,0,0,0,0,0,0,0,0,0,0,-1.6762,-1.6762,-1.6742,-1.6741,-1.6693,-1.6693,-1.6637,-1.6636,0,0,0,0,0,0,0,0,0,0,0,-1.6762,-1.6762,-1.6762,-1.6741,-1.6693,-1.6693,-1.6637,-1.6671,0,0,0,0,0,0,0,0,0,0,-1.6717,-1.674,-1.6762,-1.6762,-1.6741,-1.6693,-1.6693,-1.6672,-1.6669,-1.6662,0,-1.6658,0,-1.6646,-1.6633,-1.6633,0,0,0,-1.6737,-1.6744,-1.6726,-1.6762,-1.6741,-1.6693,-1.6714,-1.667,-1.6666,-1.6657,-1.6657,-1.6655,-1.6646,-1.6633,-1.6633,-1.6608,-1.6608,0,0,-1.674,-1.6756,-1.6729,-1.6723,-1.6733,-1.6715,-1.6712,-1.6668,-1.6669,-1.6657,-1.6654,-1.6645,-1.6632,-1.6632,-1.6608,-1.6608,0,0,0,-1.675,-1.6758,-1.6741,-1.6726,-1.6717,-1.6714,-1.671,-1.6671,-1.6664,-1.6653,-1.6644,-1.6632,-1.6632,-1.6608,-1.6608,-1.6627,0,0,0,-1.6752,-1.6764,-1.6742,-1.6752,-1.6718,-1.6694,-1.6715,-1.6667,-1.6661,-1.6644,-1.6632,-1.6631,-1.6608,-1.6608,-1.6627,-1.6634,0,0,0,-1.6763,-1.6765,-1.676,-1.6753,-1.6733,-1.6694,-1.6684,-1.6665,-1.6656,-1.6633,-1.6631,-1.6607,-1.6608,-1.6626,-1.6633,-1.6631,0,0,0,-1.678,-1.6779,-1.6761,-1.6755,-1.6733,-1.6707,-1.6685,-1.6664,-1.6646,-1.6632,-1.6608,-1.6608,-1.6626,-1.6632,-1.6631,-1.6633,-1.6636,0,0,-1.6787,-1.678,-1.6775,-1.6758,-1.6739,-1.6713,-1.6696,-1.6665,-1.6647,-1.6622,-1.6621,-1.6627,-1.6633,-1.6631,-1.6646,-1.6648,0,0,0,-1.6783,-1.678,-1.6771,-1.6756,-1.6732,-1.6711,-1.6681,-1.6668,-1.6646,-1.6638,-1.6626,-1.6629,-1.6627,-1.6627,-1.6629,-1.6627,-1.6609,-1.6609,-1.6609,-1.6816,-1.6794,-1.6784,-1.6756,-1.6741,-1.6709,-1.6694,-1.6672,-1.6654,-1.6652,-1.6644,-1.6655,-1.6656,-1.6658,-1.6655,-1.6644,-1.6644,-1.6644,-1.6644,-1.6823,-1.6815,-1.6791,-1.6774,-1.675,-1.6734,-1.6702,-1.669,-1.667,-1.666,-1.6657,-1.6647,-1.6661,-1.6657,-1.6645,-1.6645,-1.6645,-1.6645,-1.6644,-1.6842,-1.6834,-1.682,-1.6794,-1.6776,-1.6747,-1.673,-1.6708,-1.6688,-1.6686,-1.6674,-1.6674,-1.667,-1.6682,-1.6682,-1.6682,-1.6682,-1.6682,-1.6682,-1.6867,-1.685,-1.6839,-1.6813,-1.6799,-1.6778,-1.6745,-1.673,-1.6708,-1.6694,-1.6694,-1.6675,-1.6667,-1.6665,-1.6683,-1.6682,-1.6682,-1.6682,-1.6682,-1.6882,-1.6875,-1.6858,-1.6844,-1.6811,-1.6793,-1.6766,-1.6738,-1.6723,-1.6714,-1.6696,-1.6694,-1.6685,-1.6683,-1.6681,-1.6702,-1.6702,-1.6702,-1.6702,-1.6898,-1.6891,-1.6868,-1.6847,-1.6824,-1.6798,-1.6776,-1.675,-1.6721,-1.6709,-1.6703,-1.6699,-1.6698,-1.6689,-1.6687,-1.6685,-1.6707,-1.6707,-1.6707,-1.6905,-1.6895,-1.6882,-1.6855,-1.6827,-1.6802,-1.6781,-1.6757,-1.6722,-1.6707,-1.67,-1.6699,-1.6692,-1.6691,-1.6676,-1.6674,-1.6669,0,0]}]]